When you browse on this site, cookies collect data to enhance your experience and personalize the content and advertising you see.
Visit our Privacy Policy to learn more. By continuing to use the site, you agree to this use of cookies and data.
  • In Portugal
  • List of Countries
  • For 7 days
  • Water Temperature
  • Satellite Maps
  • Weather Map
  • Weather Widgets
  • user-avatar
    Login

    Hourly Weather Sidi Bu-l-Abbas

    Today, 25 May, Saturday

    Time Temperature Precipitation Wind Pressure Humidity
    00:00 +19°C° 0 mm 2 mps 717 mmHg 51%
    01:00 +18°C° 0 mm 2 mps 717 mmHg 57%
    02:00 +17°C° 0 mm 2 mps 717 mmHg 64%
    03:00 +17°C° 0 mm 2 mps 717 mmHg 70%
    04:00 +17°C° 0 mm 2 mps 717 mmHg 73%
    05:00 +16°C° 0 mm 2 mps 717 mmHg 77%
    06:00 +16°C° 0 mm 2 mps 718 mmHg 80%
    07:00 +17°C° 0 mm 3 mps 718 mmHg 72%
    08:00 +19°C° 0 mm 4 mps 718 mmHg 64%
    09:00 +20°C° 0 mm 4 mps 719 mmHg 56%
    10:00 +21°C° 0 mm 5 mps 719 mmHg 51%
    11:00 +22°C° 0 mm 6 mps 719 mmHg 45%
    12:00 +23°C° 0 mm 7 mps 719 mmHg 40%
    13:00 +23°C° 0 mm 7 mps 719 mmHg 39%
    14:00 +23°C° 0 mm 7 mps 719 mmHg 38%
    15:00 +23°C° 0 mm 7 mps 719 mmHg 37%
    16:00 +22°C° 0 mm 7 mps 720 mmHg 42%
    17:00 +21°C° 0 mm 6 mps 720 mmHg 46%
    18:00 +20°C° 0 mm 6 mps 720 mmHg 51%
    19:00 +19°C° 0 mm 5 mps 720 mmHg 58%
    20:00 +18°C° 0 mm 4 mps 720 mmHg 64%
    21:00 +17°C° 0 mm 3 mps 721 mmHg 71%
    22:00 +17°C° 0 mm 3 mps 721 mmHg 73%
    23:00 +16°C° 0 mm 3 mps 720 mmHg 75%

    Tomorrow, 26 May, Sunday

    Time Temperature Precipitation Wind Pressure Humidity
    00:00 +16°C° 0 mm 3 mps 720 mmHg 78%
    01:00 +16°C° 0.1 mm 3 mps 720 mmHg 79%
    02:00 +16°C° 0.1 mm 3 mps 720 mmHg 81%
    03:00 +14°C° 0.1 mm 3 mps 720 mmHg 82%
    04:00 +14°C° 0.1 mm 3 mps 720 mmHg 83%
    05:00 +15°C° 0.1 mm 2 mps 720 mmHg 83%
    06:00 +15°C° 0.1 mm 2 mps 720 mmHg 84%
    07:00 +16°C° 0.1 mm 2 mps 720 mmHg 79%
    08:00 +17°C° 0.1 mm 2 mps 721 mmHg 74%
    09:00 +18°C° 0.1 mm 2 mps 721 mmHg 70%
    10:00 +19°C° 0 mm 2 mps 721 mmHg 64%
    11:00 +20°C° 0 mm 3 mps 721 mmHg 59%
    12:00 +21°C° 0 mm 3 mps 721 mmHg 53%
    13:00 +22°C° 0 mm 3 mps 720 mmHg 49%
    14:00 +23°C° 0 mm 4 mps 720 mmHg 45%
    15:00 +25°C° 0 mm 5 mps 720 mmHg 41%
    16:00 +23°C° 0 mm 5 mps 720 mmHg 44%
    17:00 +23°C° 0 mm 5 mps 720 mmHg 46%
    18:00 +22°C° 0 mm 5 mps 719 mmHg 49%
    19:00 +21°C° 0 mm 4 mps 720 mmHg 53%
    20:00 +21°C° 0 mm 3 mps 720 mmHg 58%
    21:00 +20°C° 0 mm 2 mps 720 mmHg 62%
    22:00 +20°C° 0 mm 1 mps 720 mmHg 64%
    23:00 +20°C° 0 mm 1 mps 720 mmHg 66%

    Day after tomorrow, 27 May, Monday

    Time Temperature Precipitation Wind Pressure Humidity
    00:00 +19°C° 0 mm 1 mps 720 mmHg 68%
    01:00 +19°C° 0 mm 1 mps 719 mmHg 70%
    02:00 +16°C° 0 mm 0 mps 719 mmHg 71%
    03:00 +16°C° 0 mm 0 mps 719 mmHg 73%
    04:00 +19°C° 0 mm 1 mps 719 mmHg 70%
    05:00 +19°C° 0 mm 1 mps 719 mmHg 66%
    06:00 +20°C° 0 mm 1 mps 719 mmHg 63%
    07:00 +21°C° 0 mm 1 mps 719 mmHg 55%
    08:00 +23°C° 0 mm 1 mps 719 mmHg 46%
    09:00 +24°C° 0 mm 1 mps 719 mmHg 37%
    10:00 +25°C° 0 mm 2 mps 719 mmHg 34%
    11:00 +27°C° 0 mm 2 mps 720 mmHg 31%
    12:00 +28°C° 0 mm 2 mps 720 mmHg 28%
    13:00 +28°C° 0 mm 2 mps 719 mmHg 26%
    14:00 +29°C° 0 mm 3 mps 719 mmHg 25%
    15:00 +30°C° 0 mm 3 mps 718 mmHg 24%
    16:00 +29°C° 0 mm 4 mps 718 mmHg 25%
    17:00 +29°C° 0 mm 4 mps 718 mmHg 27%
    18:00 +28°C° 0 mm 5 mps 718 mmHg 28%
    19:00 +27°C° 0 mm 4 mps 718 mmHg 31%
    20:00 +26°C° 0 mm 3 mps 718 mmHg 33%
    21:00 +24°C° 0 mm 2 mps 718 mmHg 36%
    22:00 +24°C° 0 mm 1 mps 718 mmHg 38%
    23:00 +23°C° 0 mm 1 mps 718 mmHg 41%

    28 May, Tuesday

    Time Temperature Precipitation Wind Pressure Humidity
    00:00 +22°C° 0 mm 1 mps 718 mmHg 43%
    01:00 +22°C° 0 mm 1 mps 718 mmHg 44%
    02:00 +21°C° 0 mm 1 mps 717 mmHg 44%
    03:00 +21°C° 0 mm 1 mps 717 mmHg 44%
    04:00 +21°C° 0 mm 1 mps 717 mmHg 45%
    05:00 +20°C° 0 mm 0 mps 717 mmHg 45%
    06:00 +20°C° 0 mm 0 mps 717 mmHg 45%
    07:00 +24°C° 0 mm 1 mps 718 mmHg 38%
    08:00 +26°C° 0 mm 1 mps 718 mmHg 31%
    09:00 +28°C° 0 mm 1 mps 718 mmHg 24%
    10:00 +29°C° 0 mm 1 mps 718 mmHg 22%
    11:00 +30°C° 0 mm 2 mps 718 mmHg 20%
    12:00 +32°C° 0 mm 2 mps 718 mmHg 18%
    13:00 +33°C° 0 mm 3 mps 718 mmHg 18%
    14:00 +34°C° 0 mm 4 mps 718 mmHg 18%
    15:00 +34°C° 0 mm 5 mps 717 mmHg 17%
    16:00 +33°C° 0 mm 5 mps 717 mmHg 19%
    17:00 +32°C° 0 mm 5 mps 717 mmHg 21%
    18:00 +30°C° 0 mm 5 mps 717 mmHg 23%
    19:00 +29°C° 0 mm 3 mps 718 mmHg 27%
    20:00 +27°C° 0 mm 2 mps 718 mmHg 31%
    21:00 +26°C° 0 mm 1 mps 719 mmHg 34%
    22:00 +23°C° 0 mm 0 mps 719 mmHg 37%
    23:00 +22°C° 0 mm 0 mps 718 mmHg 40%

    29 May, Wednesday

    Time Temperature Precipitation Wind Pressure Humidity
    00:00 +21°C° 0 mm 0 mps 718 mmHg 42%
    01:00 +21°C° 0 mm 0 mps 718 mmHg 43%
    02:00 +20°C° 0 mm 0 mps 718 mmHg 43%
    03:00 +22°C° 0 mm 1 mps 718 mmHg 43%
    04:00 +20°C° 0 mm 0 mps 718 mmHg 45%
    05:00 +20°C° 0 mm 0 mps 718 mmHg 46%
    06:00 +21°C° 0 mm 0 mps 718 mmHg 47%
    07:00 +24°C° 0 mm 1 mps 719 mmHg 42%
    08:00 +26°C° 0 mm 1 mps 719 mmHg 36%
    09:00 +27°C° 0 mm 2 mps 720 mmHg 30%
    10:00 +28°C° 0 mm 3 mps 720 mmHg 30%
    11:00 +29°C° 0 mm 4 mps 720 mmHg 29%
    12:00 +30°C° 0 mm 4 mps 720 mmHg 28%
    13:00 +30°C° 0 mm 5 mps 720 mmHg 29%
    14:00 +30°C° 0 mm 6 mps 720 mmHg 30%
    15:00 +29°C° 0 mm 6 mps 720 mmHg 31%
    16:00 +28°C° 0 mm 6 mps 720 mmHg 34%
    17:00 +27°C° 0 mm 6 mps 720 mmHg 37%
    18:00 +25°C° 0 mm 5 mps 720 mmHg 40%
    19:00 +23°C° 0 mm 5 mps 721 mmHg 42%
    20:00 +22°C° 0 mm 4 mps 721 mmHg 44%
    21:00 +22°C° 0 mm 3 mps 722 mmHg 46%
    22:00 +21°C° 0 mm 3 mps 722 mmHg 49%
    23:00 +20°C° 0 mm 2 mps 722 mmHg 52%

    30 May, Thursday

    Time Temperature Precipitation Wind Pressure Humidity
    00:00 +19°C° 0 mm 2 mps 722 mmHg 54%
    01:00 +19°C° 0 mm 2 mps 722 mmHg 57%
    02:00 +18°C° 0 mm 2 mps 722 mmHg 59%
    03:00 +18°C° 0 mm 1 mps 722 mmHg 61%
    04:00 +18°C° 0 mm 1 mps 722 mmHg 63%
    05:00 +18°C° 0 mm 1 mps 722 mmHg 65%
    06:00 +18°C° 0 mm 1 mps 723 mmHg 66%
    07:00 +18°C° 0 mm 2 mps 723 mmHg 58%
    08:00 +20°C° 0 mm 2 mps 723 mmHg 50%
    09:00 +21°C° 0 mm 2 mps 723 mmHg 42%
    10:00 +24°C° 0 mm 3 mps 723 mmHg 37%
    11:00 +25°C° 0 mm 4 mps 723 mmHg 33%
    12:00 +27°C° 0 mm 4 mps 723 mmHg 28%
    13:00 +27°C° 0 mm 5 mps 723 mmHg 28%
    14:00 +27°C° 0 mm 5 mps 723 mmHg 28%
    15:00 +28°C° 0 mm 6 mps 723 mmHg 28%
    16:00 +27°C° 0 mm 6 mps 722 mmHg 31%
    17:00 +26°C° 0 mm 6 mps 722 mmHg 34%
    18:00 +24°C° 0 mm 6 mps 722 mmHg 37%
    19:00 +23°C° 0 mm 5 mps 723 mmHg 41%
    20:00 +21°C° 0 mm 4 mps 723 mmHg 46%
    21:00 +20°C° 0 mm 2 mps 723 mmHg 51%
    22:00 +20°C° 0 mm 2 mps 723 mmHg 53%
    23:00 +20°C° 0 mm 1 mps 723 mmHg 56%
    Show more